TimeEDT,TemperatureF,Dew PointF,Humidity,Sea Level PressureIn,VisibilityMPH,Wind Direction,Wind SpeedMPH,Gust SpeedMPH,PrecipitationIn,Events,Conditions,WindDirDegrees,DateUTC
12:54 AM,64.0,55.0,73,29.97,-9999.0,WNW,10.4,-,N/A,,Unknown,290,2013-10-08 04:54:00
1:54 AM,64.0,55.9,75,30.00,-9999.0,NNW,11.5,18.4,N/A,,Unknown,330,2013-10-08 05:54:00
2:54 AM,63.0,52.0,67,30.02,-9999.0,NNW,9.2,-,N/A,,Unknown,330,2013-10-08 06:54:00
3:54 AM,62.1,50.0,65,30.05,-9999.0,NW,10.4,-,N/A,,Unknown,310,2013-10-08 07:54:00
4:54 AM,61.0,46.9,60,30.08,-9999.0,NW,11.5,-,N/A,,Unknown,320,2013-10-08 08:54:00
5:54 AM,59.0,46.9,64,30.11,-9999.0,NW,13.8,21.9,N/A,,Unknown,320,2013-10-08 09:54:00
6:54 AM,59.0,46.0,62,30.13,-9999.0,NW,15.0,23.0,N/A,,Unknown,310,2013-10-08 10:54:00
7:54 AM,59.0,46.0,62,30.17,-9999.0,NW,12.7,21.9,N/A,,Unknown,320,2013-10-08 11:54:00
8:54 AM,59.0,45.0,60,30.19,-9999.0,NNW,13.8,18.4,N/A,,Unknown,330,2013-10-08 12:54:00
9:54 AM,60.1,45.0,57,30.21,-9999.0,NNW,10.4,-,N/A,,Unknown,340,2013-10-08 13:54:00
10:54 AM,62.1,45.0,53,30.21,-9999.0,NNW,8.1,-,N/A,,Unknown,340,2013-10-08 14:54:00
11:54 AM,64.0,44.1,48,30.21,-9999.0,North,8.1,-,N/A,,Unknown,350,2013-10-08 15:54:00
12:54 PM,64.9,43.0,45,30.21,-9999.0,NNW,10.4,-,N/A,,Unknown,340,2013-10-08 16:54:00
1:54 PM,66.0,42.1,42,30.20,-9999.0,North,10.4,-,N/A,,Unknown,350,2013-10-08 17:54:00
2:54 PM,66.0,43.0,43,30.22,-9999.0,NNW,5.8,-,N/A,,Unknown,340,2013-10-08 18:54:00
3:54 PM,66.9,42.1,40,30.23,-9999.0,NNW,4.6,-,N/A,,Unknown,340,2013-10-08 19:54:00
4:54 PM,66.0,44.1,45,30.24,-9999.0,North,4.6,-,N/A,,Unknown,350,2013-10-08 20:54:00
5:54 PM,64.9,44.1,47,30.26,-9999.0,NNE,5.8,-,N/A,,Unknown,20,2013-10-08 21:54:00
6:54 PM,64.0,41.0,43,30.27,-9999.0,North,5.8,-,N/A,,Unknown,360,2013-10-08 22:54:00
7:54 PM,64.0,43.0,46,30.29,-9999.0,NNE,6.9,-,N/A,,Unknown,20,2013-10-08 23:54:00
8:54 PM,63.0,46.0,54,30.30,-9999.0,NNE,8.1,-,N/A,,Unknown,20,2013-10-09 00:54:00
9:54 PM,61.0,48.9,64,30.33,-9999.0,NE,4.6,-,N/A,,Unknown,40,2013-10-09 01:54:00
10:54 PM,60.1,48.9,67,30.34,-9999.0,NE,5.8,-,N/A,,Unknown,40,2013-10-09 02:54:00
11:54 PM,60.1,48.9,67,30.34,-9999.0,NE,6.9,-,N/A,,Unknown,40,2013-10-09 03:54:00